Weather History for Messina, Italy

Change the Weather History Date:

Sunday, November 25, 2012

  Actual Average (LICR) Record (LICR)
Temperature  
Mean Temperature 62 °F -  
Max Temperature 68 °F 61 °F 73 °F (2003)
Min Temperature 56 °F 53 °F 46 °F (2001)
Degree Days  
Heating Degree Days 3    
Growing Degree Days 12 (Base 50)    
Moisture  
Dew Point 54 °F    
Average Humidity 76    
Maximum Humidity 88    
Minimum Humidity 50    
Precipitation  
Precipitation 0.00 in 0.15 in - ()
Sea Level Pressure  
Sea Level Pressure 30.18 in    
Wind  
Wind Speed 1 mph ()    
Max Wind Speed 5 mph    
Max Gust Speed -    
Visibility 6.8 miles    
Events      
Averages and records for this station are not official NWS values.
T = Trace of Precipitation, MM = Missing Value Source: Averaged Metar Reports

Daily Weather History Graph

Daily Weather History Graph

Search for Another Location

Airport:

Trip Planner

Search our weather history database for the weather conditions in past years. The results will help you decide how hot, cold, wet, or windy it might be!

Date:

Astronomy

Nov. 25, 2012 Rise Set
Actual Time 6:49 AM CET 4:39 PM CET
Civil Twilight 6:20 AM CET 5:08 PM CET
Nautical Twilight 5:48 AM CET 5:40 PM CET
Astronomical Twilight 5:16 AM CET 6:12 PM CET
Moon 2:45 PM CET (11/25) 3:49 AM CET (11/25)
Length of Visible Light 10h 47m
Length of Day
9h 49m
Waxing Gibbous, 91% of the Moon is Illuminated
Nov 25
Waxing Gibbous
Nov 28
Full
Dec 6
Last Quarter
Dec 13
New
Dec 20
First Quarter

Hourly Weather History & Observations

Time (CET) Temp. Dew Point Humidity Pressure Visibility Wind Dir Wind Speed Gust Speed Precip Events Conditions
12:55 AM 59.0 °F 53.6 °F 82% 30.21 in 6.2 mi Calm Calm - N/A   Partly Cloudy
1:00 AM 59 °F 54 °F 77% 30.22 in 6 mi Calm Calm - -   Scattered Clouds
1:55 AM 59.0 °F 53.6 °F 82% 30.21 in - Calm Calm - N/A   Clear
2:55 AM 57.2 °F 53.6 °F 88% 30.21 in - Calm Calm - N/A   Clear
3:55 AM 57.2 °F 53.6 °F 88% 30.21 in - Calm Calm - N/A   Clear
4:55 AM 57.2 °F 53.6 °F 88% 30.18 in - Calm Calm - N/A   Clear
5:55 AM 57.2 °F 53.6 °F 88% 30.18 in - Calm Calm - N/A   Clear
6:55 AM 57.2 °F 53.6 °F 88% 30.18 in - West 1.2 mph - N/A   Clear
7:00 AM 57 °F 53 °F 84% 30.21 in 12 mi West 1.2 mph - -  
7:55 AM 57.2 °F 53.6 °F 88% 30.21 in - Calm Calm - N/A   Clear
8:55 AM 59.0 °F 51.8 °F 77% 30.21 in 6.2 mi Calm Calm - N/A   Partly Cloudy
9:55 AM 64.4 °F 51.8 °F 64% 30.21 in 6.2 mi Calm Calm - N/A   Partly Cloudy
10:55 AM 66.2 °F 51.8 °F 60% 30.21 in 6.2 mi ESE 2.3 mph - N/A   Partly Cloudy
12:55 PM 68.0 °F 53.6 °F 60% 30.18 in 6.2 mi SSE 3.5 mph - N/A   Partly Cloudy
1:00 PM 68 °F 54 °F 50% 30.18 in 12 mi SSE 3.5 mph - -   Scattered Clouds
1:55 PM 66.2 °F 55.4 °F 68% 30.15 in 6.2 mi East 4.6 mph - N/A   Partly Cloudy
2:55 PM 64.4 °F 55.4 °F 73% 30.15 in 6.2 mi ENE 3.5 mph - N/A   Partly Cloudy
3:55 PM 64.4 °F 55.4 °F 73% 30.15 in 6.2 mi NE 4.6 mph - N/A   Partly Cloudy
4:55 PM 64.4 °F 53.6 °F 68% 30.15 in 6.2 mi NE 3.5 mph - N/A   Partly Cloudy
5:55 PM 62.6 °F 55.4 °F 77% 30.15 in 6.2 mi North 3.5 mph - N/A   Partly Cloudy
6:55 PM 62.6 °F 55.4 °F 77% 30.15 in 6.2 mi North 4.6 mph - N/A   Partly Cloudy
7:00 PM 62 °F 55 °F 70% 30.17 in 6 mi North 4.6 mph - -   Scattered Clouds
7:55 PM 60.8 °F 53.6 °F 77% 30.15 in 6.2 mi NNW 3.5 mph - N/A   Partly Cloudy
8:55 PM 60.8 °F 53.6 °F 77% 30.15 in 6.2 mi Calm Calm - N/A   Partly Cloudy
9:55 PM 60.8 °F 53.6 °F 77% 30.15 in 6.2 mi Calm Calm - N/A   Partly Cloudy
10:55 PM 59.0 °F 51.8 °F 77% 30.15 in 6.2 mi Calm Calm - N/A   Partly Cloudy
11:55 PM 57.2 °F 51.8 °F 82% 30.15 in 6.2 mi Calm Calm - N/A   Partly Cloudy